Date String (YYYY-MM-DD hh:mm:ss) UTC,Instrument flags,absolute air pressure of the measurement (hPa),sample flow rate (lpm),inlet stack bypass flow (lpm),air temperature of the measurement (°C),ambient temperature measured by the external sensor (°C),aerosol sample conditioner tube jacket temperature (°C),OPC LED temperature (°C),internal box temperature (°C),relative humidity of the measurement (%),span deviation,mass concentration of particles derived from Lorenz-Mie calculation of OPC scattering (μg/m³),mass concentration of particles derived from Lorenz-Mie calculation of OPC scattering (μg/m³),mass concentration of particles derived from Lorenz-Mie calculation of OPC scattering (μg/m³)
DateTimeUTC,F1_M11,P_M11,Q1_M11,Q2_M11,T1_M11,T2_M11,T3_M11,T4_M11,T5_M11,U1_M11,ZSPAN_M11,X0_M11,X2_M11,X1_M11
2024-05-06 16:00:00,SystemResetWarning,0810.4,5.00,000.00,021.2,020.3,000.0,029.6,022.9,011.4,0000.0,0015.82,0001.82,0000.26
2024-05-06 16:01:00,SystemResetWarning,0810.3,4.99,000.00,021.2,020.3,000.0,029.6,022.9,011.6,0000.0,0016.81,0001.78,0000.26
2024-05-06 16:02:00,SystemResetWarning,0810.1,5.01,000.00,021.1,020.3,000.0,029.6,022.9,011.4,0000.0,0017.29,0001.80,0000.26
2024-05-06 16:03:00,SystemResetWarning,0810.1,5.01,000.00,021.1,020.2,000.0,029.6,022.8,011.4,0000.0,0018.15,0001.87,0000.27
2024-05-06 16:04:00,SystemResetWarning,0810.2,4.98,000.00,021.1,020.2,000.0,029.5,022.8,011.4,0000.0,0016.62,0001.84,0000.27
2024-05-06 16:05:00,SystemResetWarning,0810.0,5.01,000.00,021.1,020.2,000.0,029.5,022.8,011.6,0000.0,0016.09,0001.81,0000.26
2024-05-06 16:06:00,SystemResetWarning,0809.9,5.01,000.00,021.1,020.2,000.0,029.5,022.8,011.4,0000.0,0016.34,0001.78,0000.25
2024-05-06 16:07:00,SystemResetWarning,0810.1,5.00,000.00,021.1,020.2,000.0,029.5,022.8,011.1,0000.0,0015.63,0001.91,0000.27
2024-05-06 16:08:00,SystemResetWarning,0810.1,4.99,000.00,021.1,020.2,000.0,029.5,022.7,011.4,0000.0,0015.91,0002.06,0000.28
2024-05-06 16:09:00,SystemResetWarning,0810.2,5.00,000.00,021.1,020.2,000.0,029.5,022.7,011.5,0000.0,0015.95,0002.08,0000.29
2024-05-06 16:10:00,SystemResetWarning,0810.2,5.00,000.00,021.1,020.2,000.0,029.5,022.8,011.2,0000.0,0015.62,0001.99,0000.29
2024-05-06 16:11:00,SystemResetWarning,0810.2,4.99,000.00,021.0,020.2,000.0,029.5,022.7,011.3,0000.0,0015.06,0001.94,0000.28
2024-05-06 16:12:00,SystemResetWarning,0809.9,5.00,000.00,021.0,020.2,000.0,029.5,022.7,011.1,0000.0,0013.90,0001.98,0000.28
2024-05-06 16:13:00,SystemResetWarning,0809.9,5.00,000.00,021.0,020.1,000.0,029.5,022.7,011.2,0000.0,0013.75,0002.06,0000.29
2024-05-06 16:14:00,SystemResetWarning,0810.1,5.00,000.00,021.0,020.1,000.0,029.4,022.7,011.3,0000.0,0014.20,0002.03,0000.28
2024-05-06 16:15:00,SystemResetWarning,0810.2,5.00,000.00,021.0,020.1,000.0,029.4,022.7,011.7,0000.0,0013.07,0001.85,0000.26
2024-05-06 16:16:00,SystemResetWarning,0810.2,5.00,000.00,021.0,020.1,000.0,029.4,022.7,011.3,0000.0,0012.78,0001.82,0000.26
2024-05-06 16:17:00,SystemResetWarning,0810.1,5.00,000.00,021.0,020.1,000.0,029.4,022.7,011.2,0000.0,0012.82,0001.73,0000.25
2024-05-06 16:18:00,SystemResetWarning,0810.3,5.01,000.00,021.0,020.1,000.0,029.4,022.7,011.6,0000.0,0011.88,0001.46,0000.22
2024-05-06 16:19:00,SystemResetWarning,0810.1,5.00,000.00,020.9,020.1,000.0,029.4,022.6,011.8,0000.0,0012.92,0001.41,0000.21
2024-05-06 16:20:00,SystemResetWarning,0810.1,5.00,000.00,020.9,020.0,000.0,029.4,022.6,011.7,0000.0,0014.72,0001.43,0000.21
2024-05-06 16:21:00,SystemResetWarning,0810.1,5.00,000.00,020.9,020.1,000.0,029.4,022.6,011.6,0000.0,0015.09,0001.41,0000.21
2024-05-06 16:22:00,SystemResetWarning,0810.4,5.00,000.00,020.9,020.0,000.0,029.3,022.6,011.7,0000.0,0016.48,0001.42,0000.22
2024-05-06 16:23:00,SystemResetWarning,0810.4,5.00,000.00,020.9,020.0,000.0,029.3,022.6,012.0,0000.0,0017.44,0001.44,0000.21
2024-05-06 16:24:00,SystemResetWarning,0810.5,5.00,000.00,020.9,020.0,000.0,029.3,022.6,011.8,0000.0,0017.68,0001.40,0000.20
2024-05-06 16:25:00,SystemResetWarning,0810.5,4.99,000.00,020.9,020.0,000.0,029.3,022.5,012.1,0000.0,0016.04,0001.29,0000.18
2024-05-06 16:26:00,SystemResetWarning,0810.4,5.00,000.00,020.9,020.1,000.0,029.3,022.5,012.1,0000.0,0014.26,0001.18,0000.18
2024-05-06 16:27:00,SystemResetWarning,0809.5,5.00,000.00,020.9,020.1,000.0,029.3,022.6,011.8,0000.0,0014.71,0001.21,0000.18
2024-05-06 16:28:00,SystemResetWarning,0809.7,5.00,000.00,020.9,020.0,000.0,029.3,022.6,012.0,0000.0,0017.75,0001.65,0000.22
2024-05-06 16:29:00,SystemResetWarning,0810.3,5.01,000.00,020.9,020.0,000.0,029.3,022.6,012.1,0000.0,0021.04,0002.09,0000.25
2024-05-06 16:30:00,SystemResetWarning,0810.6,4.99,000.00,020.8,020.0,000.0,029.2,022.5,012.1,0000.0,0020.42,0002.10,0000.25
2024-05-06 16:31:00,SystemResetWarning,0811.1,4.99,000.00,020.8,020.0,000.0,029.2,022.5,012.4,0000.0,0018.21,0002.01,0000.25
2024-05-06 16:32:00,SystemResetWarning,0810.8,4.99,000.00,020.8,020.0,000.0,029.2,022.5,012.8,0000.0,0017.81,0001.97,0000.25
2024-05-06 16:33:00,SystemResetWarning,0810.8,5.00,000.00,020.8,020.0,000.0,029.2,022.5,012.9,0000.0,0016.33,0001.90,0000.24
2024-05-06 16:34:00,SystemResetWarning,0810.7,5.00,000.00,020.8,020.0,000.0,029.2,022.5,012.9,0000.0,0015.61,0001.88,0000.24
2024-05-06 16:35:00,SystemResetWarning,0810.4,5.01,000.00,020.8,020.0,000.0,029.2,022.5,012.8,0000.0,0015.39,0001.86,0000.25
2024-05-06 16:36:00,SystemResetWarning,0810.7,5.00,000.00,020.8,020.0,000.0,029.2,022.5,012.4,0000.0,0015.65,0001.91,0000.25
2024-05-06 16:37:00,SystemResetWarning,0810.7,4.98,000.00,020.8,020.0,000.0,029.2,022.5,012.9,0000.0,0015.58,0001.91,0000.24
2024-05-06 16:38:00,SystemResetWarning,0810.8,5.01,000.00,020.8,020.0,000.0,029.2,022.5,012.9,0000.0,0014.54,0001.82,0000.24
2024-05-06 16:39:00,SystemResetWarning,0810.6,5.00,000.00,020.8,020.0,000.0,029.1,022.5,012.9,0000.0,0010.29,0001.30,0000.19
2024-05-06 16:40:00,SystemResetWarning,0810.6,5.01,000.00,020.8,020.0,000.0,029.1,022.5,012.7,0000.0,0006.02,0000.86,0000.16
2024-05-06 16:41:00,SystemResetWarning,0810.7,5.00,000.00,020.8,020.0,000.0,029.2,022.5,012.5,0000.0,0006.76,0000.73,0000.14
2024-05-06 16:42:00,SystemResetWarning,0810.9,4.99,000.00,020.8,020.0,000.0,029.1,022.5,013.0,0000.0,0007.34,0000.71,0000.14
2024-05-06 16:43:00,SystemResetWarning,0811.1,5.00,000.00,020.8,020.0,000.0,029.1,022.5,013.4,0000.0,0007.40,0000.71,0000.14
2024-05-06 16:44:00,SystemResetWarning,0811.0,5.00,000.00,020.8,020.0,000.0,029.1,022.5,013.4,0000.0,0008.18,0000.70,0000.13
2024-05-06 16:45:00,SystemResetWarning,0810.7,4.99,000.00,020.8,020.0,000.0,029.1,022.5,013.6,0000.0,0009.67,0000.76,0000.14
2024-05-06 16:46:00,SystemResetWarning,0810.7,4.99,000.00,020.8,020.0,000.0,029.1,022.5,013.3,0000.0,0010.59,0000.79,0000.13
2024-05-06 16:47:00,SystemResetWarning,0811.0,5.01,000.00,020.8,020.0,000.0,029.1,022.5,013.5,0000.0,0010.47,0000.72,0000.13
2024-05-06 16:48:00,SystemResetWarning,0810.9,5.01,000.00,020.8,020.0,000.0,029.1,022.5,013.7,0000.0,0011.20,0000.74,0000.13
2024-05-06 16:49:00,SystemResetWarning,0811.1,4.98,000.00,020.8,020.0,000.0,029.1,022.5,013.7,0000.0,0011.52,0000.77,0000.13
2024-05-06 16:50:00,SystemResetWarning,0811.0,5.00,000.00,020.8,020.0,000.0,029.1,022.5,013.7,0000.0,0012.37,0000.85,0000.14
2024-05-06 16:51:00,SystemResetWarning,0811.2,5.01,000.00,020.8,020.0,000.0,029.1,022.4,013.6,0000.0,0012.42,0000.88,0000.14
2024-05-06 16:52:00,SystemResetWarning,0810.7,5.00,000.00,020.8,020.0,000.0,029.1,022.4,013.8,0000.0,0011.54,0000.91,0000.14
2024-05-06 16:53:00,SystemResetWarning,0810.9,5.00,000.00,020.8,020.0,000.0,029.1,022.4,013.6,0000.0,0012.54,0000.93,0000.15
2024-05-06 16:54:00,SystemResetWarning,0810.9,4.99,000.00,020.8,020.0,000.0,029.1,022.4,013.7,0000.0,0013.98,0001.04,0000.15
2024-05-06 16:55:00,SystemResetWarning,0811.0,5.00,000.00,020.7,020.0,000.0,029.1,022.4,014.0,0000.0,0014.32,0001.17,0000.16
2024-05-06 16:56:00,SystemResetWarning,0811.3,5.00,000.00,020.7,020.0,000.0,029.1,022.4,013.8,0000.0,0012.50,0001.15,0000.17
2024-05-06 16:57:00,SystemResetWarning,0811.2,4.99,000.00,020.7,020.0,000.0,029.1,022.4,013.6,0000.0,0011.65,0001.14,0000.17
2024-05-06 16:58:00,SystemResetWarning,0811.3,5.00,000.00,020.7,020.0,000.0,029.1,022.4,013.4,0000.0,0011.40,0001.14,0000.17
2024-05-06 16:59:00,SystemResetWarning,0811.2,5.00,000.00,020.7,020.0,000.0,029.1,022.4,013.8,0000.0,0010.80,0001.12,0000.17
